Trofeo Emilia Romagna - 13ma prova - 2a manche
Data ultimo agg. : 21/11/2021 18:39:45
categoria: M35
pos. cat. tempo Nome società vel.
1M3500:16:39Calligola AlessandroPOL. 'G. MASI'00:06:39
2M3500:18:11Gabrowski KarolPOL. 'G. MASI'00:07:16
3M3500:18:20Dissette PaoloOR. CLUB APPENNINO00:07:20
4M3500:18:28Bussi MauroS CARCHIDIO-STROCCHI00:07:23
5M3500:19:19Balboni MassimoOR. CLUB APPENNINO00:07:43
6M3500:20:53De Nardis DavidePOL. 'G. MASI'00:08:21
7M3500:21:05Giussani MarcoNIRVANA VERDE00:08:26
7M3500:21:05Zonato StefanoLESSINIA OR. BOSCO CHIESANUOVA00:08:26
9M3500:21:10Ravaglia EnzoIL MOSAICO00:08:28
10M3500:22:36Trentini RicoPOL. 'G. MASI'00:09:02
11M3500:22:51Bonato NicolaCSI SASSO MARCONI00:09:08
12M3500:23:57Cavazzani AugustoOR. PERGINE00:09:34
13M3500:25:24Greco GiovanniIL MOSAICO00:10:09
14M3500:26:06Darecchio MatteoOR. PARMA00:10:26
15M3500:26:07D'amico DarioPOL. CIRCOLO DOZZA00:10:26
16M3500:27:37Talignani GiacomoOR. PARMA00:11:02
17M3500:29:02Presti FabrizioIL MOSAICO00:11:36
18M3500:29:21Mannocci LucaPOL. 'G. MASI'00:11:44
19M3500:29:28Schembari GiovanniUNIONE LOMBARDA00:11:47
20M3500:34:09Cabrini AldoOR. PARMA00:13:39
21M3500:47:07Forteleoni PaoloORIENT EXPRESS VERONA00:18:50
PMM3500:37:46Parmeggiani LuigiIL MOSAICO00:15:06
NPM3500:00:00Cavara MassimilianoOR. CLUB APPENNINO00:00:00
NPM3500:00:00Gianotti AndreaNIRVANA VERDE00:00:00
NPM3500:00:00Greci RomanoOR. PARMA00:00:00
NPM3500:00:00Musetti DiegoIKP00:00:00

PARTNER UFFICIALI FISO